Location: Eaton Estates
(41.3089°N, 82.0057°W)
Time: 09:09:49
(UTC+00:00)

NOAA 18 - Pass Details

Date: 05 April 2023
Orbit: 838 x 860 km, 98.9° (Epoch: 03 June)

Event Time Altitude Azimuth Distance (km) Brightness Sun altitude
Exits shadow 04:59:37 10° 300° (WNW) 2,495 8.0 -42.2°
Drops below altitude 10° 04:59:37 10° 300° (WNW) 2,497 8.0 -42.2°
Sets 05:03:24 0° 326° (NW) 3,445 9.1 -42.3°
